EHI
3 3 3 4 4 3 3 3 4 5 7 7 8 8 7 7 6 6 5 4 4 4 5 7 7 6 4 3 3 4 6 7 7 6 4 3 3 3 3 4 4 5 6
3 3 3 3 3 2 2 2 4 5 7 9 9 9 8 7 7 6 6 5 4 4 7 8 7 6 4 4 4 4 6 7 7 6 4 3 3 3 3 4 4 4 5
3 3 3 3 2 1 1 1 4 6 9 11 11 11 10 8 7 6 6 6 4 4 6 8 8 7 5 4 4 4 6 6 6 6 4 3 3 3 3 3 4 4 4
2 2 3 3 3 2 2 2 5 8 10 11 12 12 10 8 7 6 6 6 5 4 5 6 8 8 6 4 4 4 5 6 6 5 3 3 2 3 3 3 3 4 4
1 1 3 4 4 3 3 4 6 9 10 10 11 11 9 7 6 6 6 6 6 5 4 4 6 8 6 4 3 3 4 6 5 4 3 3 3 3 3 3 3 3 3
0 0 2 4 4 3 4 5 7 8 7 7 9 9 8 7 6 6 6 6 6 6 4 4 5 6 6 5 4 3 4 5 4 3 3 3 3 3 3 3 3 3 3
1 1 3 5 4 3 4 5 6 5 5 5 7 8 7 6 6 6 6 6 6 6 5 4 5 6 5 4 3 3 4 4 4 3 3 3 4 5 5 4 4 4 4
2 2 3 5 5 4 3 3 3 3 3 5 7 8 7 7 7 7 7 6 6 6 6 5 5 5 4 3 3 3 4 4 4 3 3 4 5 7 7 6 5 5 5
3 3 3 4 4 3 2 2 1 1 2 5 6 7 7 7 8 9 9 7 7 7 7 6 5 4 3 3 4 4 4 5 4 3 3 4 6 8 7 5 4 4 4
3 3 3 3 3 3 2 2 2 1 2 4 6 6 6 6 7 8 8 8 9 9 8 6 5 4 4 5 6 6 6 6 5 3 3 4 6 7 5 3 2 3 4
3 3 3 3 3 3 2 1 2 2 3 5 6 6 5 5 6 6 7 8 9 9 8 7 6 6 6 7 7 7 7 7 5 4 3 4 5 5 4 3 2 4 5
3 3 3 3 4 3 1 0 1 2 3 4 3 5 5 5 5 5 6 6 7 7 8 8 7 7 7 7 6 6 6 5 4 4 4 5 5 4 5 4 4 5 6
3 3 3 4 4 3 1 0 0 2 3 2 2 3 4 4 4 4 4 4 4 5 6 8 7 6 5 5 4 3 4 4 4 5 7 8 7 6 6 6 5 4 5
4 4 4 5 5 3 1 0 0 1 2 1 1 1 2 3 2 3 3 4 3 3 4 5 5 4 3 4 3 2 3 5 5 6 10 12 11 10 9 7 6 5 5
5 5 6 7 7 4 2 1 1 0 0 0 0 0 1 1 1 2 4 6 4 3 3 4 4 3 3 3 3 2 2 4 5 6 10 14 15 13 11 9 7 6 6
9 8 8 9 7 5 3 3 2 1 0 0 0 0 0 0 1 3 5 5 4 2 4 4 3 3 3 3 3 2 1 2 3 6 9 12 15 15 13 11 9 7 6
10 10 8 6 6 5 4 3 3 1 1 1 0 0 0 1 3 4 4 4 2 3 4 5 4 4 4 4 3 3 3 3 4 5 7 9 12 13 12 11 10 7 6
8 9 7 5 4 5 4 3 3 3 2 2 2 2 3 3 4 5 4 3 2 4 5 6 6 6 6 5 4 4 5 6 6 6 5 5 6 7 8 9 9 7 6
6 8 9 7 6 6 5 4 3 3 3 3 4 6 7 7 6 6 5 4 4 5 6 6 6 6 6 6 5 5 7 8 8 7 5 3 2 2 3 7 8 7 6
6 8 10 10 10 8 7 5 4 4 4 4 7 9 9 9 9 6 5 4 5 6 6 6 6 6 6 6 5 6 7 8 8 7 5 3 1 1 2 5 7 7 6
7 9 11 12 12 10 8 7 7 6 6 6 7 9 9 8 8 6 4 5 6 8 8 8 7 6 6 6 6 6 6 6 7 7 6 4 2 3 3 4 5 7 6
10 11 13 14 15 14 13 11 10 9 8 8 8 8 8 7 6 6 6 7 9 11 11 10 9 6 5 5 6 6 6 6 7 7 6 5 4 4 4 3 4 5 5
13 13 14 15 17 19 18 15 12 11 11 10 10 10 8 7 7 7 8 9 11 12 12 12 11 9 6 6 6 6 5 6 6 6 6 6 6 5 4 3 3 3 3
12 12 13 15 18 21 21 17 13 12 11 11 11 10 8 7 6 7 7 9 11 12 12 12 13 12 10 7 7 6 5 5 5 5 5 6 7 7 5 4 3 3 2
10 11 13 15 18 21 20 18 16 12 9 9 9 9 7 6 6 7 6 7 10 12 12 13 13 13 12 10 8 7 6 6 5 5 4 5 6 7 6 5 5 4 3
10 11 13 16 19 20 19 17 16 13 10 9 9 8 6 5 6 7 6 6 9 12 13 13 13 13 12 11 10 7 7 7 6 5 4 4 6 7 6 6 6 5 5
Wind_Speed
3 5 6 3 4 4 5 6 7 7 8 8 8 8 8 8 8 8 8 8 8 8 8 8 9 10 10 10 10 11 11 11 11 11 10 10 9 9 9 9 10 9 10
4 6 6 4 4 5 5 6 7 7 8 8 7 7 7 7 7 7 7 7 7 7 8 8 8 9 10 10 10 10 11 11 11 11 11 11 10 9 8 8 7 6 10
5 6 5 5 5 5 5 5 6 6 7 8 7 7 7 7 7 7 6 6 6 7 8 8 8 9 9 9 10 10 10 10 10 10 11 9 10 10 9 8 8 8 10
5 5 6 7 5 5 4 4 5 6 6 7 7 7 7 6 5 5 6 5 5 6 7 9 8 8 8 8 9 9 10 10 10 11 9 7 8 10 9 9 9 9 10
6 6 9 7 6 5 4 2 5 6 7 7 7 6 6 5 4 4 4 3 4 5 7 8 8 8 8 9 8 8 9 10 11 11 7 6 6 10 10 9 10 11 11
6 6 9 6 6 6 6 6 7 7 7 7 7 6 5 5 4 4 3 3 4 4 6 7 7 7 8 9 9 8 8 9 11 8 6 6 6 9 10 10 10 11 11
6 6 9 7 6 6 6 7 7 7 7 6 6 6 5 4 4 3 3 3 3 4 6 6 5 5 6 7 9 8 8 9 8 6 6 6 6 9 10 10 10 10 11
5 5 7 8 6 6 6 6 6 6 6 6 5 5 4 4 3 3 3 2 3 4 5 6 5 5 5 6 8 8 9 10 8 6 5 5 6 8 9 9 9 10 10
5 4 4 5 6 6 6 6 6 5 5 5 4 4 4 3 2 2 2 2 2 3 4 4 4 4 5 6 7 8 8 8 5 4 5 4 7 8 9 9 9 10 10
5 4 4 4 4 4 6 7 5 5 4 4 4 3 3 2 3 2 2 2 2 3 3 3 3 3 4 5 6 8 9 9 6 5 3 4 8 8 9 9 8 9 10
4 4 3 4 3 3 3 6 5 5 4 3 4 4 2 1 2 3 3 4 3 3 3 3 3 3 4 6 7 8 9 5 5 3 2 6 7 8 9 9 8 8 9
4 4 4 3 3 3 2 3 2 2 3 2 2 2 1 1 1 1 5 3 2 3 3 3 3 4 5 4 7 8 4 5 4 3 4 7 7 8 9 9 9 9 9
4 4 4 4 3 2 2 2 1 1 2 2 2 1 1 1 0 0 1 3 3 3 2 4 4 2 1 0 1 2 2 3 2 2 4 8 7 8 8 8 8 9 9
4 4 3 3 3 2 2 1 1 1 1 2 2 1 1 1 1 1 1 1 1 1 1 0 0 1 1 0 1 1 2 2 2 2 4 7 7 7 7 8 9 9 9
4 3 4 3 3 2 1 1 1 1 1 2 2 2 2 1 1 1 1 1 1 1 1 1 1 1 0 1 1 1 1 1 1 2 4 7 7 7 7 8 9 9 9
3 3 3 3 3 2 2 1 1 1 1 1 1 2 2 1 1 1 1 0 1 1 1 0 0 1 0 0 0 0 1 1 1 1 2 6 7 7 7 7 8 8 8
3 3 3 3 3 2 1 0 0 1 1 1 1 1 1 1 1 1 1 0 1 0 1 1 1 1 1 1 1 1 1 1 1 1 1 2 5 8 7 7 6 7 7
3 3 2 2 2 2 1 0 0 1 1 1 1 1 1 2 1 1 1 1 0 1 1 1 1 0 0 1 1 0 0 1 1 1 1 1 2 3 7 7 6 6 7
3 3 3 2 2 1 1 1 0 1 1 1 1 1 2 1 1 1 1 1 1 1 1 1 1 1 0 1 1 1 1 1 1 1 1 1 2 2 2 7 7 5 6
3 3 2 3 2 1 1 1 0 1 1 1 1 1 1 1 1 1 0 1 1 1 1 1 0 0 1 1 2 0 1 1 1 1 1 1 1 2 2 2 4 6 7
3 3 3 3 3 2 1 1 1 0 0 1 1 2 1 1 1 1 2 1 1 1 1 2 1 1 1 1 2 2 2 3 2 2 2 1 1 2 1 2 2 1 4
4 3 4 3 3 2 1 1 1 0 0 1 1 2 2 1 1 0 1 1 1 1 1 2 2 2 1 1 2 2 2 4 3 2 2 2 1 1 2 2 2 2 2
4 4 3 3 3 2 1 1 1 1 1 1 1 1 2 2 1 2 1 2 2 1 1 1 2 2 2 0 2 3 2 1 0 3 2 1 1 1 1 1 3 2 2
4 4 4 3 2 2 2 1 1 0 0 1 1 1 1 1 1 1 1 1 2 1 1 2 1 2 3 2 1 1 3 3 3 1 3 2 2 2 2 2 2 3 2
4 4 4 3 2 2 2 2 2 1 0 0 0 1 0 1 1 1 1 1 1 1 2 2 2 3 2 2 2 1 1 1 3 3 2 1 2 2 1 2 2 1 2
5 4 4 4 3 3 2 1 1 1 1 1 1 0 1 0 0 1 1 1 1 1 1 1 1 1 2 2 3 2 2 2 2 2 3 3 2 1 1 1 2 2 2
Wind_Direction
69 75 90 79 78 97 107 117 127 130 137 137 137 142 149 153 154 154 157 158 162 167 169 169 169 166 164 163 161 158 156 156 159 161 161 162 160 159 163 167 174 168 149
80 83 95 92 89 94 103 114 123 129 132 135 134 134 138 146 153 158 161 160 167 172 173 171 170 168 167 167 167 165 164 162 165 168 170 170 167 166 168 174 183 147 155
91 92 105 94 97 90 99 117 129 134 136 138 139 133 130 136 145 154 159 163 176 181 180 174 171 168 167 169 170 170 169 171 171 175 185 184 168 170 175 173 169 162 168
98 99 89 93 93 89 93 109 127 133 137 141 142 138 133 131 138 149 150 164 178 174 174 171 171 170 171 171 175 177 176 177 179 188 193 184 175 165 177 178 175 175 178
101 100 94 92 89 84 84 100 136 127 125 129 134 134 132 132 134 135 142 152 154 156 162 165 171 173 174 175 178 180 183 186 191 202 191 188 178 160 179 184 183 184 184
110 104 98 95 90 80 72 67 104 111 115 120 126 128 123 119 122 118 110 115 137 149 155 156 163 171 176 177 178 184 187 192 201 194 192 195 177 166 184 189 190 189 186
107 103 104 97 87 78 78 80 88 94 101 111 118 120 117 114 115 110 102 98 126 143 149 148 152 162 177 181 180 183 188 199 210 190 188 193 172 168 188 193 195 192 184
104 108 110 113 96 83 81 83 87 93 100 106 112 112 110 106 97 91 92 89 108 131 144 155 159 162 174 181 181 183 189 208 198 193 191 185 158 172 187 192 197 195 186
103 102 101 120 121 113 93 83 86 88 91 98 106 107 106 103 95 94 86 77 92 118 138 151 159 161 168 178 180 177 183 210 211 181 187 178 156 175 189 193 198 196 193
102 99 101 99 98 115 117 104 90 86 88 98 105 110 120 146 146 138 141 99 96 108 126 146 152 166 177 176 177 177 187 206 203 192 185 145 152 175 187 190 194 191 189
107 102 101 104 102 95 96 108 126 125 117 143 137 138 172 175 139 148 82 80 86 99 116 136 146 171 186 174 176 187 200 199 190 195 175 136 161 180 190 191 192 193 194
119 116 107 96 89 98 95 98 101 111 107 96 77 101 100 71 31 43 99 111 110 124 145 152 169 194 215 182 173 196 200 190 195 185 147 150 172 188 195 194 193 198 199
124 120 115 108 102 91 87 86 75 85 94 99 83 88 92 56 78 69 114 146 162 175 181 160 192 199 155 100 224 195 198 195 186 184 142 157 178 192 198 196 197 201 202
121 118 110 109 102 80 58 68 86 82 88 75 80 25 57 55 21 41 18 62 105 100 113 156 147 96 82 109 232 231 191 206 184 173 136 158 176 189 198 204 203 207 205
124 123 116 105 99 105 97 1 72 64 53 72 52 48 19 33 35 45 27 19 49 81 129 165 86 99 181 182 219 214 221 191 198 194 145 159 178 189 200 207 208 208 208
138 129 123 123 114 109 113 90 17 45 72 43 46 33 353 0 30 28 84 63 61 60 29 313 159 186 219 332 250 207 266 165 159 221 171 160 173 185 201 206 212 210 209
146 136 134 136 123 128 135 169 107 24 44 19 49 42 353 356 27 357 48 76 56 104 174 215 235 201 195 180 184 192 182 144 132 164 211 190 171 177 186 196 208 211 210
149 141 148 146 133 144 143 126 352 4 24 5 20 62 50 19 351 322 25 31 346 241 195 176 244 223 216 208 176 240 164 146 142 152 175 191 196 174 173 184 202 209 209
150 150 153 149 135 141 135 151 172 50 21 0 14 36 58 40 348 313 14 12 273 263 269 259 108 285 240 253 203 185 203 167 148 149 149 179 176 203 181 162 183 198 205
129 133 139 139 128 142 155 152 129 70 52 31 40 43 24 29 15 332 89 6 308 340 316 330 315 273 275 275 271 180 219 189 186 166 208 185 194 200 203 183 183 188 191
130 131 134 136 134 157 167 207 182 111 47 51 57 45 29 9 13 341 345 23 322 352 329 310 285 203 229 251 247 219 188 185 190 201 208 218 200 198 190 193 199 205 181
134 137 146 157 154 178 173 209 222 304 339 63 41 54 26 18 355 17 357 321 346 338 322 314 298 294 259 249 282 266 222 173 183 187 199 202 230 214 196 181 175 199 257
148 151 149 156 160 183 190 197 181 174 206 143 90 76 36 18 29 6 355 328 341 317 351 304 296 292 295 276 310 304 295 312 196 164 192 197 221 232 235 193 191 191 218
158 149 142 143 154 167 188 206 215 260 348 19 2 65 74 35 15 16 339 331 313 322 352 306 336 299 288 279 214 290 319 342 300 228 181 171 199 219 242 251 199 194 209
154 149 145 145 142 150 187 193 225 248 275 3 68 90 358 64 19 357 354 344 322 327 353 349 354 317 293 292 289 255 247 249 274 282 272 247 208 195 207 232 245 228 215
154 155 152 149 151 151 163 167 204 287 311 346 5 358 245 169 88 35 344 338 316 331 347 333 332 340 327 324 306 302 287 278 274 275 274 270 268 217 208 226 239 241 234